CFG421 HKMO-HTZA

Flight info

Callsign CFG421
Flight time 0h 29m
Altitude 16000
Route IMSIS2A UVUKO DCT OKPOL DCT IMTOM DCT IMVIV
Aircraft B772/H-SDE2E3FGHIJ5LORVWXY/LB1D1

Departure

Time 2026-04-30 07:13
Airport Moi International Airport (HKMO)

Arrival

Time 2026-04-30 07:42
Airport Abeid Amani Karume International Airport (HTZA)
Time Latitude Longitude Altitude Speed Heading
2026-04-30 06:15 -4.03205 39.60192 211 ft 0 kts 119°
2026-04-30 06:58 -4.03198 39.60180 211 ft 2 kts 118°
2026-04-30 06:58 -4.03191 39.60166 211 ft 2 kts 119°
2026-04-30 06:59 -4.03184 39.60153 212 ft 2 kts 119°
2026-04-30 06:59 -4.03176 39.60140 212 ft 2 kts 119°
2026-04-30 06:59 -4.03172 39.60126 211 ft 2 kts 68°
2026-04-30 06:59 -4.03183 39.60115 211 ft 2 kts 23°
2026-04-30 07:00 -4.03197 39.60109 211 ft 2 kts 28°
2026-04-30 07:00 -4.03206 39.60104 211 ft 2 kts 31°
2026-04-30 07:00 -4.03212 39.60100 211 ft 0 kts 28°
2026-04-30 07:02 -4.03205 39.60104 211 ft 3 kts 28°
2026-04-30 07:02 -4.03170 39.60123 211 ft 7 kts 28°
2026-04-30 07:02 -4.03160 39.60128 211 ft 0 kts 28°
2026-04-30 07:04 -4.03153 39.60132 211 ft 3 kts 28°
2026-04-30 07:04 -4.03118 39.60149 211 ft 7 kts 20°
2026-04-30 07:04 -4.03063 39.60124 211 ft 10 kts 310°
2026-04-30 07:04 -4.03018 39.60049 211 ft 14 kts 298°
2026-04-30 07:05 -4.02893 39.59954 207 ft 13 kts 28°
2026-04-30 07:05 -4.02803 39.60005 207 ft 10 kts 30°
2026-04-30 07:05 -4.02739 39.60041 205 ft 6 kts 31°
2026-04-30 07:06 -4.02681 39.60075 205 ft 11 kts 30°
2026-04-30 07:06 -4.02603 39.60119 204 ft 14 kts 29°
2026-04-30 07:06 -4.02499 39.60176 202 ft 19 kts 28°
2026-04-30 07:06 -4.02376 39.60245 202 ft 18 kts 28°
2026-04-30 07:07 -4.02276 39.60301 202 ft 12 kts 31°
2026-04-30 07:07 -4.02193 39.60348 203 ft 15 kts 28°
2026-04-30 07:07 -4.02092 39.60404 204 ft 17 kts 28°
2026-04-30 07:07 -4.02004 39.60450 206 ft 13 kts 27°
2026-04-30 07:08 -4.01957 39.60475 207 ft 0 kts 29°
2026-04-30 07:08 -4.01933 39.60489 207 ft 6 kts 31°
2026-04-30 07:09 -4.01884 39.60519 208 ft 9 kts 31°
2026-04-30 07:09 -4.01815 39.60559 209 ft 12 kts 30°
2026-04-30 07:09 -4.01727 39.60609 210 ft 15 kts 29°
2026-04-30 07:09 -4.01624 39.60667 212 ft 17 kts 30°
2026-04-30 07:10 -4.01518 39.60724 214 ft 16 kts 26°
2026-04-30 07:10 -4.01428 39.60734 216 ft 11 kts 345°
2026-04-30 07:10 -4.01369 39.60704 217 ft 7 kts 319°
2026-04-30 07:10 -4.01338 39.60664 217 ft 3 kts 299°
2026-04-30 07:11 -4.01341 39.60630 217 ft 5 kts 231°
2026-04-30 07:11 -4.01377 39.60606 215 ft 6 kts 205°
2026-04-30 07:11 -4.01391 39.60598 215 ft 0 kts 209°
2026-04-30 07:12 -4.01408 39.60589 214 ft 9 kts 209°
2026-04-30 07:12 -4.01697 39.60430 205 ft 96 kts 210°
2026-04-30 07:12 -4.02560 39.59946 201 ft 177 kts 208°
2026-04-30 07:12 -4.03759 39.59283 648 ft 200 kts 207°
2026-04-30 07:13 -4.05028 39.58635 1544 ft 205 kts 206°
2026-04-30 07:13 -4.06266 39.57988 2658 ft 200 kts 204°
2026-04-30 07:13 -4.07512 39.57357 3719 ft 196 kts 204°
2026-04-30 07:13 -4.08726 39.56739 4650 ft 195 kts 202°
2026-04-30 07:14 -4.09987 39.56092 4908 ft 234 kts 205°
2026-04-30 07:14 -4.11386 39.55304 4684 ft 286 kts 207°
2026-04-30 07:14 -4.13292 39.54207 5149 ft 313 kts 207°
2026-04-30 07:14 -4.15239 39.53080 5924 ft 325 kts 207°
2026-04-30 07:15 -4.17278 39.51897 6762 ft 334 kts 207°
2026-04-30 07:15 -4.19317 39.50712 7630 ft 340 kts 208°
2026-04-30 07:15 -4.21420 39.49486 8475 ft 334 kts 208°
2026-04-30 07:15 -4.23345 39.48362 9237 ft 303 kts 207°
2026-04-30 07:16 -4.25304 39.47676 10024 ft 290 kts 186°
2026-04-30 07:16 -4.27379 39.47571 10854 ft 294 kts 178°
2026-04-30 07:16 -4.29482 39.47640 11707 ft 299 kts 176°
2026-04-30 07:16 -4.31634 39.47760 12563 ft 305 kts 176°
2026-04-30 07:17 -4.33840 39.47893 13421 ft 311 kts 176°
2026-04-30 07:17 -4.36055 39.48028 14280 ft 316 kts 176°
2026-04-30 07:17 -4.40527 39.48299 15781 ft 324 kts 176°
2026-04-30 07:18 -4.42825 39.48438 15977 ft 326 kts 177°
2026-04-30 07:18 -4.45129 39.48577 15999 ft 324 kts 176°
2026-04-30 07:18 -4.47452 39.48719 16005 ft 323 kts 176°
2026-04-30 07:18 -4.49754 39.48859 16002 ft 322 kts 176°
2026-04-30 07:19 -4.52043 39.48998 15989 ft 322 kts 176°
2026-04-30 07:19 -4.54316 39.49136 15998 ft 321 kts 176°
2026-04-30 07:19 -4.56570 39.49272 16006 ft 322 kts 176°
2026-04-30 07:19 -4.58885 39.49412 16010 ft 321 kts 176°
2026-04-30 07:20 -4.61178 39.49551 16003 ft 322 kts 176°
2026-04-30 07:20 -4.63489 39.49690 15998 ft 320 kts 176°
2026-04-30 07:20 -4.65767 39.49828 15996 ft 321 kts 176°
2026-04-30 07:20 -4.68056 39.49966 16003 ft 320 kts 176°
2026-04-30 07:21 -4.70311 39.49966 15995 ft 319 kts 186°
2026-04-30 07:21 -4.72545 39.49528 15999 ft 321 kts 193°
2026-04-30 07:21 -4.74791 39.48972 16001 ft 321 kts 194°
2026-04-30 07:21 -4.77026 39.48412 16001 ft 321 kts 194°
2026-04-30 07:22 -4.81459 39.47307 16000 ft 320 kts 194°
2026-04-30 07:22 -4.83635 39.46765 15993 ft 321 kts 193°
2026-04-30 07:22 -4.85824 39.46221 16005 ft 321 kts 194°
2026-04-30 07:23 -4.88059 39.45665 16005 ft 321 kts 194°
2026-04-30 07:23 -4.90300 39.45107 16002 ft 321 kts 194°
2026-04-30 07:23 -4.92502 39.44559 16010 ft 321 kts 194°
2026-04-30 07:23 -4.94766 39.43996 16003 ft 321 kts 194°
2026-04-30 07:24 -4.96966 39.43449 16003 ft 321 kts 194°
2026-04-30 07:24 -4.99183 39.42897 16006 ft 322 kts 194°
2026-04-30 07:24 -5.01415 39.42342 16000 ft 321 kts 194°
2026-04-30 07:24 -5.03660 39.41783 15997 ft 321 kts 194°
2026-04-30 07:25 -5.05881 39.41230 16007 ft 321 kts 194°
2026-04-30 07:25 -5.08079 39.40683 16001 ft 321 kts 193°
2026-04-30 07:25 -5.10237 39.40146 16005 ft 322 kts 193°
2026-04-30 07:25 -5.12593 39.39560 16011 ft 350 kts 193°
2026-04-30 07:26 -5.15100 39.38945 16023 ft 375 kts 193°
2026-04-30 07:26 -5.17786 39.38285 16001 ft 399 kts 193°
2026-04-30 07:26 -5.20562 39.37598 15639 ft 428 kts 193°
2026-04-30 07:26 -5.23551 39.36854 15063 ft 446 kts 193°
2026-04-30 07:27 -5.26614 39.36090 14711 ft 434 kts 193°
2026-04-30 07:27 -5.29531 39.35361 14328 ft 417 kts 193°
2026-04-30 07:27 -5.32132 39.34711 13954 ft 397 kts 193°
2026-04-30 07:27 -5.34897 39.34019 13509 ft 378 kts 193°
2026-04-30 07:28 -5.37473 39.33375 12937 ft 366 kts 193°
2026-04-30 07:28 -5.39988 39.32745 12348 ft 357 kts 193°
2026-04-30 07:28 -5.42422 39.32136 11752 ft 349 kts 193°
2026-04-30 07:28 -5.44794 39.31543 11154 ft 342 kts 192°
2026-04-30 07:29 -5.47150 39.30954 10560 ft 335 kts 192°
2026-04-30 07:29 -5.49423 39.30386 9954 ft 326 kts 192°
2026-04-30 07:29 -5.51640 39.29832 9362 ft 315 kts 192°
2026-04-30 07:29 -5.53803 39.29292 8764 ft 306 kts 191°
2026-04-30 07:30 -5.57267 39.28427 7912 ft 288 kts 192°
2026-04-30 07:30 -5.59246 39.27934 7492 ft 287 kts 191°
2026-04-30 07:30 -5.61221 39.27443 7010 ft 288 kts 192°
2026-04-30 07:31 -5.63212 39.26947 6519 ft 289 kts 192°
2026-04-30 07:31 -5.65214 39.26448 6027 ft 291 kts 192°
2026-04-30 07:31 -5.67209 39.25950 5521 ft 290 kts 192°
2026-04-30 07:31 -5.69195 39.25454 5252 ft 282 kts 192°
2026-04-30 07:32 -5.71117 39.24974 5010 ft 275 kts 192°
2026-04-30 07:32 -5.72977 39.24509 4767 ft 268 kts 192°
2026-04-30 07:32 -5.74804 39.24053 4523 ft 263 kts 192°
2026-04-30 07:32 -5.76587 39.23608 4281 ft 258 kts 192°
2026-04-30 07:33 -5.78360 39.23166 4037 ft 253 kts 192°
2026-04-30 07:33 -5.80078 39.22738 3797 ft 249 kts 192°
2026-04-30 07:33 -5.81770 39.22315 3544 ft 243 kts 192°
2026-04-30 07:33 -5.83407 39.21905 3468 ft 227 kts 192°
2026-04-30 07:34 -5.84943 39.21522 3370 ft 217 kts 191°
2026-04-30 07:34 -5.86444 39.21149 3258 ft 217 kts 191°
2026-04-30 07:34 -5.87941 39.20775 3134 ft 218 kts 193°
2026-04-30 07:34 -5.89386 39.20238 3008 ft 217 kts 197°
2026-04-30 07:35 -5.90879 39.19867 2883 ft 213 kts 187°
2026-04-30 07:35 -5.92409 39.19741 2678 ft 211 kts 180°
2026-04-30 07:35 -5.93854 39.19757 2507 ft 203 kts 177°
2026-04-30 07:35 -5.95271 39.19839 2341 ft 196 kts 175°
2026-04-30 07:36 -5.96654 39.19954 2165 ft 190 kts 174°
2026-04-30 07:36 -5.97997 39.20081 2012 ft 184 kts 173°
2026-04-30 07:36 -5.99255 39.20203 1983 ft 172 kts 173°
2026-04-30 07:36 -6.00460 39.20322 1985 ft 171 kts 173°
2026-04-30 07:37 -6.01666 39.20443 1982 ft 172 kts 173°
2026-04-30 07:37 -6.02893 39.20566 1983 ft 172 kts 173°
2026-04-30 07:37 -6.03846 39.20661 1983 ft 172 kts 173°
2026-04-30 07:37 -6.05067 39.20783 1979 ft 172 kts 173°
2026-04-30 07:38 -6.06299 39.20906 1984 ft 173 kts 173°
2026-04-30 07:38 -6.07526 39.21028 1983 ft 171 kts 173°
2026-04-30 07:38 -6.08758 39.21151 1991 ft 172 kts 173°
2026-04-30 07:38 -6.09980 39.21272 1983 ft 172 kts 173°
2026-04-30 07:39 -6.11165 39.21389 1926 ft 168 kts 173°
2026-04-30 07:39 -6.12353 39.21507 1704 ft 162 kts 173°
2026-04-30 07:39 -6.13487 39.21621 1505 ft 158 kts 173°
2026-04-30 07:39 -6.14601 39.21714 1339 ft 158 kts 175°
2026-04-30 07:40 -6.15755 39.21820 1112 ft 165 kts 172°
2026-04-30 07:40 -6.16907 39.21938 892 ft 153 kts 172°
2026-04-30 07:40 -6.17945 39.22052 640 ft 143 kts 173°
2026-04-30 07:40 -6.18963 39.22155 464 ft 144 kts 173°
2026-04-30 07:41 -6.20000 39.22266 298 ft 147 kts 173°
2026-04-30 07:41 -6.21028 39.22371 129 ft 148 kts 173°
2026-04-30 07:41 -6.22024 39.22470 63 ft 120 kts 174°
2026-04-30 07:41 -6.22722 39.22541 60 ft 84 kts 174°
2026-04-30 07:42 -6.23236 39.22593 63 ft 66 kts 173°
2026-04-30 07:42 -6.23583 39.22626 61 ft 40 kts 176°
2026-04-30 07:42 -6.23749 39.22642 60 ft 16 kts 174°
2026-04-30 07:42 -6.23811 39.22570 62 ft 12 kts 263°
2026-04-30 07:43 -6.23794 39.22494 63 ft 12 kts 314°
2026-04-30 07:43 -6.23706 39.22465 64 ft 15 kts 355°
2026-04-30 07:43 -6.23588 39.22454 64 ft 18 kts 355°
2026-04-30 07:43 -6.23449 39.22441 64 ft 21 kts 354°
2026-04-30 07:44 -6.23290 39.22427 64 ft 23 kts 353°
2026-04-30 07:44 -6.23152 39.22411 64 ft 20 kts 354°
2026-04-30 07:44 -6.22997 39.22396 63 ft 23 kts 354°
2026-04-30 07:44 -6.22912 39.22387 63 ft 1 kts 354°
2026-04-30 07:45 -6.22882 39.22384 63 ft 6 kts 354°
2026-04-30 07:45 -6.22813 39.22377 62 ft 12 kts 354°
2026-04-30 07:45 -6.22712 39.22367 62 ft 15 kts 355°
2026-04-30 07:45 -6.22587 39.22355 63 ft 19 kts 354°
2026-04-30 07:46 -6.22442 39.22337 63 ft 22 kts 353°
2026-04-30 07:46 -6.22315 39.22321 63 ft 16 kts 356°
2026-04-30 07:46 -6.22248 39.22318 63 ft 6 kts 356°
2026-04-30 07:46 -6.22183 39.22310 63 ft 11 kts 353°
2026-04-30 07:47 -6.22125 39.22305 64 ft 5 kts 355°
2026-04-30 07:47 -6.22102 39.22300 64 ft 0 kts 319°
2026-04-30 07:47 -6.22093 39.22284 64 ft 4 kts 294°
2026-04-30 07:47 -6.22090 39.22274 64 ft 0 kts 271°
2026-04-30 07:48 -6.22091 39.22264 64 ft 0 kts 268°
2026-04-30 07:48 -6.22092 39.22251 64 ft 4 kts 265°
2026-04-30 07:48 -6.22093 39.22238 64 ft 0 kts 265°
2026-04-30 07:48 -6.22093 39.22237 64 ft 0 kts 265°